| time (UTC) | temp F | wind direction | speed MPH | gust MPH | rain 1hr in | rain 24hr in | rain mn in | humidity % | barometer mb |
| 20260906063035 | 74 | 0 | 0.0 | 4.0 | 0.00 | 0.15 | 0.00 | 89 | 1013.4 |
| 20260906061538 | 74 | 311 | 4.0 | 8.0 | 0.00 | 0.15 | 0.00 | 88 | 1013.6 |
| 20260906053036 | 75 | 331 | 4.0 | 8.0 | 0.00 | 0.15 | 0.00 | 89 | 1014.2 |
| 20260906013055 | 77 | 224 | 8.0 | 12.0 | 0.01 | 0.14 | 0.14 | 84 | 1014.2 |
| 20260906011535 | 78 | 236 | 4.0 | 5.0 | 0.01 | 0.13 | 0.13 | 82 | 1014.1 |
| 20260906010037 | 78 | 0 | 0.0 | 3.0 | 0.01 | 0.13 | 0.13 | 81 | 1014.1 |
| 20260906001554 | 78 | 34 | 5.0 | 8.0 | 0.01 | 0.12 | 0.12 | 81 | 1013.2 |
| 20260905233034 | 79 | 58 | 3.0 | 5.0 | 0.01 | 0.11 | 0.11 | 81 | 1013.3 |
| 20260905231535 | 79 | 295 | 2.0 | 4.0 | 0.01 | 0.11 | 0.11 | 79 | 1013.3 |
| 20260905224535 | 79 | 0 | 0.0 | 1.0 | 0.01 | 0.10 | 0.10 | 84 | 1013.3 |
| 20260905221542 | 78 | 298 | 2.0 | 4.0 | 0.01 | 0.10 | 0.10 | 84 | 1013.2 |
| 20260905213036 | 77 | 90 | 3.0 | 6.0 | 0.01 | 0.09 | 0.09 | 84 | 1013.7 |
| 20260905211536 | 77 | 154 | 1.0 | 5.0 | 0.01 | 0.09 | 0.09 | 87 | 1013.9 |
| 20260905204535 | 77 | 261 | 8.0 | 13.0 | 0.07 | 0.09 | 0.09 | 83 | 1013.9 |
| 20260905203037 | 76 | 78 | 7.0 | 13.0 | 0.08 | 0.08 | 0.08 | 80 | 1013.7 |
| 20260905201536 | 75 | 108 | 6.0 | 17.0 | 0.08 | 0.08 | 0.08 | 84 | 1014.1 |
| 20260905200056 | 75 | 99 | 13.0 | 24.0 | 0.06 | 0.06 | 0.06 | 82 | 1013.9 |
| 20260905193040 | 85 | 53 | 13.0 | 27.0 | 0.00 | 0.00 | 0.00 | 61 | 1014.7 |
| 20260905191535 | 92 | 76 | 15.0 | 26.0 | 0.00 | 0.00 | 0.00 | 51 | 1014.1 |
| 20260905190037 | 95 | 84 | 3.0 | 5.0 | 0.00 | 0.00 | 0.00 | 47 | 1013.6 |
| 20260905183041 | 96 | 146 | 5.0 | 9.0 | 0.00 | 0.00 | 0.00 | 46 | 1013.5 |
| 20260905180040 | 95 | 209 | 7.0 | 14.0 | 0.00 | 0.00 | 0.00 | 49 | 1013.9 |
| 20260905174533 | 95 | 298 | 2.0 | 5.0 | 0.00 | 0.00 | 0.00 | 49 | 1014.1 |
| 20260905171537 | 93 | 152 | 6.0 | 10.0 | 0.00 | 0.00 | 0.00 | 50 | 1014.3 |
| 20260905170035 | 93 | 130 | 4.0 | 8.0 | 0.00 | 0.00 | 0.00 | 55 | 1014.5 |
| 20260905164537 | 93 | 215 | 4.0 | 9.0 | 0.00 | 0.00 | 0.00 | 57 | 1015.0 |
| 20260905163035 | 92 | 53 | 3.0 | 8.0 | 0.00 | 0.00 | 0.00 | 56 | 1015.2 |
| 20260905161536 | 91 | 202 | 3.0 | 10.0 | 0.00 | 0.00 | 0.00 | 59 | 1015.3 |
| 20260905160034 | 91 | 227 | 4.0 | 8.0 | 0.00 | 0.00 | 0.00 | 61 | 1015.4 |
| 20260905153037 | 89 | 232 | 3.0 | 8.0 | 0.00 | 0.00 | 0.00 | 66 | 1015.7 |
| 20260905151536 | 88 | 324 | 3.0 | 7.0 | 0.00 | 0.00 | 0.00 | 66 | 1015.7 |
| 20260905144543 | 86 | 265 | 3.0 | 7.0 | 0.00 | 0.00 | 0.00 | 71 | 1015.9 |
| 20260905143037 | 84 | 263 | 3.0 | 7.0 | 0.00 | 0.00 | 0.00 | 74 | 1015.9 |
| 20260905140035 | 81 | 308 | 3.0 | 8.0 | 0.00 | 0.00 | 0.00 | 79 | 1016.1 |
| 20260905134538 | 80 | 345 | 4.0 | 8.0 | 0.00 | 0.00 | 0.00 | 83 | 1016.3 |
| 20260905131545 | 78 | 284 | 5.0 | 9.0 | 0.00 | 0.00 | 0.00 | 85 | 1016.2 |
| 20260905130035 | 77 | 267 | 6.0 | 11.0 | 0.00 | 0.00 | 0.00 | 87 | 1016.1 |
| 20260905124535 | 76 | 302 | 5.0 | 8.0 | 0.00 | 0.00 | 0.00 | 89 | 1016.1 |
| 20260905123059 | 75 | 260 | 6.0 | 8.0 | 0.00 | 0.00 | 0.00 | 91 | 1016.1 |
| 20260905121535 | 74 | 296 | 5.0 | 8.0 | 0.00 | 0.00 | 0.00 | 92 | 1016.1 |
| 20260905120034 | 74 | 284 | 5.0 | 7.0 | 0.00 | 0.00 | 0.00 | 94 | 1015.8 |
| 20260905114534 | 73 | 288 | 4.0 | 6.0 | 0.00 | 0.00 | 0.00 | 94 | 1015.7 |
| 20260905113035 | 73 | 277 | 4.0 | 7.0 | 0.00 | 0.00 | 0.00 | 94 | 1015.5 |
| 20260905111537 | 73 | 273 | 4.0 | 6.0 | 0.00 | 0.00 | 0.00 | 94 | 1015.4 |
| 20260905110035 | 73 | 280 | 5.0 | 8.0 | 0.00 | 0.00 | 0.00 | 93 | 1015.3 |
| 20260905104531 | 74 | 271 | 6.0 | 8.0 | 0.00 | 0.00 | 0.00 | 93 | 1015.1 |
| 20260905103043 | 74 | 279 | 6.0 | 8.0 | 0.00 | 0.00 | 0.00 | 92 | 1015.0 |
| 20260905101534 | 75 | 279 | 7.0 | 9.0 | 0.00 | 0.00 | 0.00 | 92 | 1015.0 |
| 20260905100047 | 75 | 304 | 5.0 | 8.0 | 0.00 | 0.00 | 0.00 | 92 | 1015.2 |
| 20260905093034 | 75 | 309 | 3.0 | 5.0 | 0.00 | 0.00 | 0.00 | 93 | 1015.1 |
| 20260905084534 | 76 | 277 | 6.0 | 8.0 | 0.00 | 0.00 | 0.00 | 93 | 1015.1 |
| 20260905083034 | 76 | 288 | 4.0 | 7.0 | 0.00 | 0.00 | 0.00 | 93 | 1015.1 |